Starlink 11432

operational
NORAD ID: 62882 Int'l Des: 2025-024 Owner: SPXS Country: US Constellation: starlink
LEOCIRCULAR

About Starlink 11432

Description loading...

Live Position

Loading 3D Globe...

Upcoming Passes

Altitude History

Altitude vs Time

uPlot chart will show altitude changes over time

Two-Line Element Set

1 62882U 25024D 25305.50282805 .00257670 00000-0 19400-2 0 9997
2 62882 42.9997 234.3485 0003883 274.6654 85.3771 15.70957618 43303
Epoch: Nov 1, 2025 • Age: 14 hours

Current Status

Altitude 356.8 km
Velocity 7.70 km/s
Sub-Earth Point -14.21°S, 148°E
Launch Date Feb 4, 2025
Age 0.7 years
Type internet

Technical Details

Classification Payload
Mass 960.00 kg
Dry Mass 910.00 kg
Total Mass 960.00 kg
Length 0.30 m
Diameter 4.10 m
Span 29.00 m
Shape Box + pan
Manufacturer SPXS
Bus Type Starlink V2MD
Phase Status In Orbit
Owner/State SPXS/US

Large Constellations

Loading constellations...